Elizabeth City, NC

4:05 AM EDT on May 27, 2017 (GMT -0400)
Elizabeth City Cgas-Regional

Weather History for KECG - June, 2013

Change the Weather History Date:

Saturday, June 8, 2013

  Actual Average Record
Temperature  
Mean Temperature 77 °F 74 °F  
Max Temperature 84 °F 83 °F 101 °F (1942)
Min Temperature 70 °F 64 °F 48 °F (1998)
Degree Days  
Heating Degree Days 0 0  
Month to date heating degree days 0 0  
Since 1 June heating degree days 0 0  
Since 1 July heating degree days 2879 3229  
Cooling Degree Days 12 9  
Month to date cooling degree days 73 64  
Year to date cooling degree days 279 228  
Since 1 June cooling degree days 73 64  
Growing Degree Days 26 (Base 50)    
Moisture  
Dew Point 71 °F    
Average Humidity 81    
Maximum Humidity 97    
Minimum Humidity 65    
Precipitation  
Precipitation 0.46 in 0.15 in 1.63 in (1983)
Month to date precipitation 2.78 1.22  
Year to date precipitation 13.45 18.39  
Snow  
Snow 0.00 in - 0.00 in (2002)
Month to date snowfall 0.0  
Since 1 July snowfall T  
Snow Depth 0.00 in    
Sea Level Pressure  
Sea Level Pressure 29.94 in    
Wind  
Wind Speed 8 mph (SSW)    
Max Wind Speed 6 mph    
Max Gust Speed 7 mph    
Visibility 9 miles    
Events Rain , Thunderstorm    
T = Trace of Precipitation, MM = Missing Value Source: NWS Daily Summary

Daily Weather History Graph

Daily Weather History Graph

Search for Another Location

Airport or City:

Trip Planner

Search our weather history database for the weather conditions in past years. The results will help you decide how hot, cold, wet, or windy it might be!

Date:

Astronomy

Jun. 08, 2013 Rise Set
Actual Time 5:46 AM EDT 8:20 PM EDT
Civil Twilight 5:16 AM EDT 8:51 PM EDT
Nautical Twilight 4:39 AM EDT 9:28 PM EDT
Astronomical Twilight 3:57 AM EDT 10:10 PM EDT
Moon 5:51 AM EDT (6/8) 8:23 PM EDT (6/8)
Length of Visible Light 15h 34m
Length of Day
14h 33m
New Moon, 0% of the Moon is Illuminated
Jun 8
New Moon
Jun 16
First Quarter
Jun 23
Full
Jun 30
Last Quarter
Jul 8
New

Hourly Weather History & Observations

Time (EDT) Temp. Heat Index Dew Point Humidity Pressure Visibility Wind Dir Wind Speed Gust Speed Precip Events Conditions
12:40 AM 71.6 °F - 68.0 °F 88% 29.83 in 10.0 mi WSW 11.5 mph 18.4 mph N/A   Mostly Cloudy
12:54 AM 71.1 °F - 68.0 °F 90% 29.83 in 10.0 mi WSW 10.4 mph - N/A   Partly Cloudy
1:54 AM 70.0 °F - 68.0 °F 93% 29.85 in 10.0 mi SW 8.1 mph - N/A   Clear
2:54 AM 72.0 °F - 68.0 °F 87% 29.85 in 10.0 mi South 6.9 mph - N/A   Overcast
3:54 AM 72.0 °F - 69.1 °F 91% 29.86 in 10.0 mi South 5.8 mph - N/A   Mostly Cloudy
4:18 AM 73.4 °F - 69.8 °F 88% 29.87 in 10.0 mi South 6.9 mph - N/A   Overcast
4:54 AM 73.0 °F - 69.1 °F 87% 29.88 in 10.0 mi South 6.9 mph - N/A   Mostly Cloudy
5:08 AM 73.4 °F - 69.8 °F 88% 29.88 in 10.0 mi SSW 11.5 mph - N/A   Scattered Clouds
5:54 AM 73.0 °F - 70.0 °F 90% 29.89 in 10.0 mi SSW 9.2 mph - N/A   Clear
6:54 AM 73.9 °F - 71.1 °F 91% 29.91 in 10.0 mi SSW 6.9 mph - N/A   Clear
7:54 AM 75.9 °F - 71.1 °F 85% 29.92 in 10.0 mi SSW 10.4 mph - N/A   Partly Cloudy
8:52 AM 77.0 °F - 73.4 °F 89% 29.94 in 10.0 mi SSW 12.7 mph - N/A   Mostly Cloudy
8:54 AM 77.0 °F - 73.0 °F 88% 29.94 in 10.0 mi SSW 13.8 mph - N/A   Mostly Cloudy
9:25 AM 78.8 °F - 73.4 °F 83% 29.94 in 10.0 mi SW 9.2 mph - N/A   Overcast
9:54 AM 80.1 °F 84.2 °F 73.0 °F 79% 29.95 in 10.0 mi SSW 15.0 mph 24.2 mph N/A   Mostly Cloudy
10:02 AM 80.6 °F 85.4 °F 73.4 °F 79% 29.95 in 10.0 mi SW 16.1 mph - N/A   Scattered Clouds
10:54 AM 82.0 °F 87.4 °F 73.0 °F 74% 29.95 in 10.0 mi SSW 13.8 mph - N/A   Scattered Clouds
11:54 AM 82.0 °F 86.3 °F 71.1 °F 69% 29.94 in 10.0 mi SSW 12.7 mph - N/A   Scattered Clouds
12:10 PM 75.2 °F - 71.6 °F 89% 29.95 in 7.0 mi SSW 8.1 mph - 0.08 in Rain , Thunderstorm Light Thunderstorms and Rain
12:20 PM 75.2 °F - 71.6 °F 89% 29.95 in 3.0 mi South 15.0 mph 23.0 mph 0.13 in Rain , Thunderstorm Light Thunderstorms and Rain
12:42 PM 73.4 °F - 69.8 °F 88% 29.95 in 1.0 mi SSW 20.7 mph 31.1 mph 0.32 in Rain , Thunderstorm Heavy Thunderstorms and Rain
12:44 PM 73.4 °F - 69.8 °F 88% 29.95 in 2.0 mi South 13.8 mph 31.1 mph 0.33 in Rain Heavy Rain
12:51 PM 73.4 °F - 69.8 °F 88% 29.95 in 6.0 mi SSW 15.0 mph - 0.33 in Rain Light Rain
12:54 PM 73.0 °F - 70.0 °F 90% 29.95 in 6.0 mi SSW 13.8 mph 21.9 mph 0.33 in Rain Light Rain
1:54 PM 80.1 °F 84.2 °F 73.0 °F 79% 29.94 in 10.0 mi SSW 12.7 mph - 0.05 in   Clear
2:54 PM 78.1 °F - 71.1 °F 79% 29.96 in 10.0 mi SW 6.9 mph - N/A   Mostly Cloudy
3:03 PM 75.2 °F - 71.6 °F 89% 29.97 in 1.8 mi SSW 8.1 mph - 0.08 in Rain Heavy Rain
3:09 PM 77.0 °F - 73.4 °F 89% 29.97 in 3.0 mi South 5.8 mph - 0.08 in Rain Light Rain
3:24 PM 77.0 °F - 73.4 °F 89% 29.97 in 10.0 mi South 6.9 mph - 0.08 in   Overcast
3:54 PM 80.1 °F 84.2 °F 73.0 °F 79% 29.97 in 10.0 mi South 5.8 mph - 0.08 in   Scattered Clouds
4:54 PM 82.0 °F 87.4 °F 73.0 °F 74% 29.98 in 10.0 mi South 4.6 mph - N/A   Mostly Cloudy
5:54 PM 82.0 °F 85.9 °F 70.0 °F 67% 29.98 in 10.0 mi WNW 9.2 mph - N/A   Mostly Cloudy
6:54 PM 82.0 °F 85.9 °F 70.0 °F 67% 30.00 in 10.0 mi NW 3.5 mph - N/A   Partly Cloudy
7:54 PM 78.1 °F - 73.9 °F 87% 30.03 in 10.0 mi ENE 4.6 mph - N/A   Mostly Cloudy
8:54 PM 73.9 °F - 71.1 °F 91% 30.04 in 10.0 mi East 6.9 mph - N/A   Partly Cloudy
9:54 PM 73.0 °F - 69.1 °F 87% 30.08 in 10.0 mi ENE 6.9 mph - N/A   Scattered Clouds
10:54 PM 71.1 °F - 68.0 °F 90% 30.09 in 10.0 mi East 4.6 mph - N/A   Partly Cloudy